Probability
0 0 0 0 0 0 0 0 0 0 0 0 0 0 0 0 0 0 0 0 0 0 0 0 0 0 0 0 0 0 0 0 0 0 0 0 0 0 0 0 0 0 0 0
0 0 0 0 0 0 0 0 0 0 0 0 0 0 0 0 0 0 0 0 0 0 0 0 0 0 0 0 0 0 0 0 0 0 0 0 0 0 0 0 0 0 0 0
0 0 0 0 0 0 0 0 0 0 0 0 0 0 0 0 0 0 0 0 0 0 0 0 0 0 0 0 0 0 0 0 0 0 0 0 0 0 0 0 0 0 0 0
0 0 0 0 0 0 0 0 0 0 0 0 0 0 0 0 0 0 0 0 0 0 0 0 0 0 0 0 0 0 0 0 0 0 0 0 0 0 0 0 0 0 0 0
0 0 0 0 0 0 0 0 0 0 0 0 0 0 0 0 0 0 0 0 0 0 0 0 0 0 0 0 0 0 0 0 0 0 0 0 0 0 0 0 0 0 0 0
0 0 0 0 0 0 0 0 0 0 0 0 0 0 0 0 0 0 0 0 0 0 0 0 0 0 0 0 0 0 0 0 0 0 0 0 0 0 0 0 0 0 0 0
0 0 0 0 0 0 0 0 0 0 0 0 0 0 0 0 0 0 0 0 0 0 0 0 0 0 0 0 0 0 0 0 0 0 0 0 0 0 0 0 0 0 0 0
0 0 0 0 0 0 0 0 0 0 0 0 0 0 0 0 0 0 0 0 0 0 0 0 0 0 0 0 0 0 0 0 0 0 0 0 0 0 0 0 0 0 0 0
0 0 0 0 0 0 0 0 0 0 0 0 0 0 0 0 0 0 0 0 0 0 0 0 0 0 0 0 0 0 0 0 0 0 0 0 0 0 0 0 0 0 0 0
0 0 0 0 0 0 0 0 0 0 0 0 0 0 0 0 0 0 0 0 0 0 0 0 0 0 0 0 0 0 0 0 0 0 0 0 0 0 0 0 0 0 0 0
0 0 0 0 0 0 0 0 0 0 0 0 0 0 0 0 0 0 0 0 0 0 0 0 0 0 0 0 0 0 0 0 0 0 0 0 0 0 0 0 0 0 0 0
0 0 0 0 0 0 0 0 0 0 0 0 0 0 0 0 0 0 0 0 0 0 0 0 0 0 0 0 0 0 0 0 0 0 0 0 0 0 0 0 0 0 0 0
0 0 0 0 0 0 0 0 0 0 0 0 0 0 0 0 0 0 0 0 0 0 0 0 0 0 0 0 0 0 0 0 0 0 0 0 0 0 0 0 0 0 0 0
0 0 0 0 0 0 0 0 0 0 0 0 0 0 0 0 0 0 0 0 0 0 0 0 0 0 0 0 0 0 0 0 0 0 0 0 0 0 0 0 0 0 0 0
0 0 0 0 0 0 0 0 0 0 0 0 0 0 0 0 0 0 0 0 0 0 0 0 0 0 0 0 0 0 0 0 0 0 0 0 0 0 0 0 0 0 0 0
0 0 0 0 0 0 0 0 0 0 0 0 0 0 0 0 0 0 0 0 0 0 0 0 0 0 0 0 0 0 0 0 0 0 0 0 0 0 0 0 0 0 0 0
0 0 0 0 0 0 0 0 0 0 0 0 0 0 0 0 0 0 0 0 0 0 0 0 0 0 0 0 0 0 0 0 0 0 0 0 0 0 0 0 0 0 0 0
0 0 0 0 0 0 0 0 0 0 0 0 0 0 0 0 0 0 0 0 0 0 0 0 0 0 0 0 0 0 0 0 0 0 0 0 0 0 0 0 0 0 0 0
0 0 0 0 0 0 0 0 0 0 0 0 0 0 0 0 0 0 0 0 0 0 0 0 0 0 0 0 0 0 0 0 0 0 0 0 0 0 0 0 0 0 0 0
0 0 0 0 0 0 0 0 0 0 0 0 0 0 0 0 0 0 0 0 0 0 0 0 0 0 0 0 0 0 0 0 0 0 0 0 0 0 0 0 0 0 0 0
0 0 0 0 0 0 0 0 0 0 0 0 0 0 0 0 0 0 0 0 0 0 0 0 0 0 0 0 0 0 0 0 0 0 0 0 0 0 0 0 0 0 0 0
0 0 0 0 0 0 0 0 0 0 0 0 0 0 0 0 0 0 0 0 0 0 0 0 0 0 0 0 0 0 0 0 0 0 0 0 0 0 0 0 0 0 0 0
0 0 0 0 0 0 0 0 0 0 0 0 0 0 0 0 0 0 0 0 0 0 0 0 0 0 0 0 0 0 0 0 0 0 0 0 0 0 0 0 0 0 0 0
0 0 0 0 0 0 0 0 0 0 0 0 0 0 0 0 0 0 0 0 0 0 0 0 0 0 0 0 0 0 0 0 0 0 0 0 0 0 0 0 0 0 0 0
0 0 0 0 0 0 0 0 0 0 0 0 0 0 0 0 0 0 0 0 0 0 0 0 0 0 0 0 0 0 0 0 0 0 0 0 0 0 0 0 0 0 0 0
0 0 0 0 0 0 0 0 0 0 0 0 0 0 0 0 0 0 0 0 0 0 0 0 0 0 0 0 0 0 0 0 0 0 0 0 0 0 0 0 0 0 0 0
Height
5723 5721 5717 5714 5710 5707 5703 5700 5698 5695 5691 5690 5688 5686 5684 5682 5682 5681 5681 5681 5681 5681 5682 5683 5684 5686 5689 5691 5694 5696 5698 5700 5702 5705 5707 5709 5711 5713 5714 5715 5717 5719 5721 5723
5717 5713 5709 5705 5702 5698 5695 5692 5689 5687 5683 5681 5679 5678 5677 5675 5673 5673 5672 5671 5672 5672 5672 5673 5674 5675 5677 5680 5682 5684 5686 5687 5689 5691 5693 5696 5698 5700 5702 5703 5705 5707 5709 5710
5708 5706 5701 5698 5694 5691 5688 5684 5681 5678 5675 5672 5670 5670 5669 5667 5665 5664 5663 5662 5662 5662 5662 5663 5664 5665 5667 5668 5669 5671 5673 5675 5677 5678 5680 5682 5684 5686 5688 5690 5692 5694 5696 5698
5700 5697 5694 5690 5687 5684 5681 5677 5674 5670 5667 5665 5663 5660 5662 5659 5657 5656 5655 5654 5653 5653 5653 5654 5654 5655 5656 5657 5658 5659 5661 5662 5664 5665 5666 5668 5670 5672 5675 5677 5679 5681 5683 5684
5693 5690 5687 5684 5681 5677 5673 5670 5666 5663 5659 5657 5655 5652 5654 5651 5649 5648 5646 5645 5644 5644 5644 5644 5645 5645 5646 5647 5647 5647 5648 5649 5650 5651 5652 5654 5656 5657 5660 5662 5665 5667 5669 5671
5686 5683 5680 5677 5674 5670 5666 5663 5659 5656 5652 5650 5648 5644 5644 5643 5641 5639 5638 5636 5635 5635 5634 5634 5635 5635 5635 5635 5635 5636 5636 5637 5637 5638 5639 5640 5642 5643 5645 5648 5651 5653 5656 5658
5679 5676 5673 5670 5667 5663 5660 5656 5652 5648 5645 5643 5641 5637 5637 5634 5632 5631 5630 5627 5626 5625 5625 5624 5624 5624 5624 5624 5624 5624 5624 5625 5624 5625 5626 5627 5628 5629 5631 5634 5637 5640 5642 5645
5671 5670 5666 5662 5660 5656 5652 5649 5645 5640 5637 5636 5633 5630 5631 5627 5624 5622 5621 5619 5617 5616 5615 5614 5614 5614 5614 5613 5613 5613 5612 5613 5612 5613 5613 5614 5615 5616 5618 5620 5623 5626 5629 5632
5663 5662 5659 5655 5652 5649 5644 5641 5638 5633 5629 5627 5625 5624 5622 5619 5616 5614 5612 5610 5609 5607 5605 5604 5604 5603 5603 5603 5602 5601 5600 5600 5600 5600 5601 5601 5602 5603 5605 5607 5610 5613 5616 5619
5655 5653 5652 5648 5645 5641 5638 5634 5630 5625 5620 5618 5617 5616 5615 5611 5608 5606 5603 5601 5599 5598 5596 5594 5593 5593 5592 5592 5591 5590 5589 5588 5588 5588 5588 5589 5589 5591 5592 5595 5597 5600 5603 5605
5648 5646 5644 5640 5637 5633 5630 5627 5622 5618 5613 5610 5607 5611 5606 5603 5599 5597 5595 5592 5590 5588 5586 5585 5583 5582 5581 5580 5579 5578 5578 5577 5577 5576 5576 5576 5577 5578 5580 5582 5585 5587 5590 5592
5640 5637 5635 5633 5629 5625 5622 5619 5615 5611 5607 5603 5599 5603 5598 5594 5590 5587 5585 5583 5580 5578 5576 5574 5573 5572 5570 5569 5568 5567 5566 5565 5565 5565 5564 5564 5565 5565 5567 5569 5571 5574 5577 5579
5631 5629 5626 5624 5623 5618 5614 5611 5607 5603 5599 5595 5592 5595 5590 5585 5581 5578 5576 5573 5571 5568 5566 5564 5563 5561 5560 5558 5557 5556 5554 5554 5553 5553 5552 5552 5552 5553 5554 5555 5558 5560 5562 5565
5623 5621 5619 5616 5612 5608 5606 5603 5599 5594 5590 5587 5586 5584 5582 5577 5573 5569 5566 5563 5561 5558 5556 5554 5552 5550 5549 5547 5545 5544 5542 5541 5541 5541 5540 5540 5540 5540 5540 5542 5544 5547 5549 5552
5614 5612 5610 5607 5604 5600 5597 5594 5590 5586 5582 5579 5578 5575 5573 5568 5564 5560 5557 5554 5551 5548 5546 5543 5541 5539 5538 5536 5534 5532 5531 5530 5529 5528 5528 5528 5527 5527 5528 5529 5531 5533 5535 5537
5605 5603 5601 5599 5595 5591 5587 5585 5582 5578 5574 5571 5568 5566 5564 5559 5554 5551 5547 5544 5541 5538 5535 5532 5530 5528 5526 5524 5522 5520 5519 5518 5517 5516 5515 5515 5514 5515 5515 5516 5517 5519 5521 5523
5596 5593 5590 5588 5585 5581 5579 5577 5573 5569 5566 5562 5558 5557 5553 5549 5545 5541 5538 5534 5531 5527 5524 5521 5519 5516 5514 5511 5510 5508 5507 5506 5504 5503 5503 5502 5502 5502 5502 5502 5503 5505 5507 5509
5587 5583 5579 5577 5575 5571 5573 5567 5563 5559 5557 5553 5549 5546 5542 5539 5535 5532 5527 5524 5521 5517 5514 5511 5508 5506 5503 5500 5498 5496 5495 5494 5493 5491 5490 5489 5489 5489 5489 5489 5489 5491 5492 5494
5577 5574 5570 5567 5563 5561 5562 5557 5553 5549 5547 5543 5539 5536 5532 5528 5526 5523 5518 5514 5511 5507 5504 5501 5498 5495 5492 5490 5487 5485 5484 5483 5481 5480 5478 5477 5476 5475 5475 5475 5476 5476 5477 5479
5568 5565 5562 5557 5553 5551 5553 5548 5542 5539 5536 5534 5530 5526 5522 5518 5516 5514 5508 5505 5501 5498 5494 5491 5488 5485 5482 5479 5477 5474 5473 5471 5470 5468 5467 5465 5464 5463 5462 5462 5462 5462 5463 5464
5559 5555 5552 5548 5544 5542 5542 5537 5533 5530 5528 5523 5519 5516 5512 5509 5506 5503 5498 5495 5491 5488 5484 5481 5477 5475 5472 5469 5466 5464 5462 5460 5459 5457 5455 5454 5452 5451 5450 5450 5449 5448 5449 5450
5549 5546 5543 5539 5536 5536 5532 5528 5524 5521 5517 5513 5509 5506 5503 5500 5496 5493 5489 5485 5481 5478 5474 5470 5467 5464 5461 5459 5456 5454 5452 5450 5448 5446 5444 5443 5441 5440 5438 5437 5436 5435 5435 5436
5540 5538 5534 5532 5531 5526 5522 5518 5515 5511 5508 5504 5501 5497 5494 5491 5487 5483 5480 5476 5472 5468 5465 5461 5458 5455 5452 5449 5446 5444 5441 5439 5437 5435 5433 5431 5430 5428 5426 5425 5424 5423 5423 5423
5532 5528 5525 5522 5521 5517 5513 5509 5506 5502 5499 5495 5492 5489 5485 5482 5478 5474 5471 5467 5464 5460 5456 5452 5448 5445 5442 5439 5436 5433 5431 5429 5427 5425 5423 5420 5418 5417 5415 5414 5413 5412 5411 5412
5523 5519 5516 5513 5512 5509 5506 5501 5498 5494 5491 5487 5483 5480 5476 5473 5469 5465 5462 5459 5455 5451 5447 5443 5439 5436 5432 5429 5426 5423 5421 5419 5416 5414 5412 5410 5408 5406 5405 5403 5402 5401 5401 5400
5515 5511 5508 5505 5503 5500 5497 5493 5490 5486 5483 5479 5475 5472 5468 5464 5461 5457 5453 5450 5446 5442 5438 5434 5430 5426 5422 5419 5416 5413 5411 5408 5406 5404 5402 5400 5398 5396 5395 5393 5392 5390 5390 5389
Wind_Speed
30 30 31 31 31 31 31 32 31 32 32 32 32 31 31 32 33 33 34 35 37 37 38 39 41 42 44 45 45 45 45 46 47 46 46 45 45 45 45 45 45 44 44 43
31 31 31 31 31 31 32 32 32 32 33 33 33 31 30 32 32 33 33 35 36 36 38 39 39 40 43 45 45 45 46 46 48 47 47 47 47 46 46 46 45 45 45 45
31 31 31 31 31 31 32 33 33 33 33 33 33 32 30 31 32 32 33 35 36 37 37 38 38 39 41 43 45 46 47 47 48 48 48 48 49 48 48 47 46 46 46 46
31 31 31 31 31 32 32 33 33 33 33 32 32 33 30 31 31 32 33 34 35 35 36 37 38 39 40 41 43 45 46 47 47 48 48 49 49 49 50 49 48 47 47 47
31 30 30 31 31 32 33 33 33 33 33 33 33 34 32 31 31 31 32 32 33 34 35 37 38 40 41 41 42 44 45 46 47 48 49 49 49 49 48 49 49 48 48 49
30 30 30 31 31 32 33 34 34 34 34 34 33 34 33 32 30 31 32 33 33 33 35 37 38 40 40 41 41 43 43 45 47 48 48 49 49 48 48 50 50 49 48 48
31 31 31 32 32 33 33 34 35 35 35 35 34 34 33 33 31 32 32 33 33 35 36 37 38 39 40 42 42 42 43 44 45 46 48 48 47 48 49 50 50 50 50 49
32 32 32 32 33 33 33 33 34 36 36 35 34 33 33 33 33 34 34 33 34 36 37 38 39 39 41 42 42 42 43 45 46 47 48 48 49 48 47 48 49 49 49 49
34 33 32 33 33 33 34 33 34 36 37 37 35 34 32 33 33 34 35 35 35 35 37 38 39 40 41 41 41 42 43 44 46 47 48 49 49 50 49 48 48 48 49 50
34 34 33 33 34 34 34 34 34 35 37 38 37 36 35 34 35 35 35 35 35 35 37 38 40 41 42 42 42 42 43 44 44 45 47 49 49 50 50 50 49 49 49 50
34 35 35 35 34 34 34 34 35 36 37 38 38 36 36 36 36 37 37 37 37 37 37 38 39 40 41 42 42 42 43 43 44 45 45 47 48 50 51 51 50 50 50 50
34 36 35 35 35 35 35 35 35 36 37 37 38 37 36 37 38 38 38 37 37 37 37 39 39 41 42 42 42 43 43 43 44 45 45 45 46 48 49 50 50 50 51 51
35 35 36 36 36 36 35 35 35 36 37 37 38 37 37 38 38 39 38 38 38 38 38 39 39 40 41 42 43 42 43 43 44 45 45 46 47 47 48 49 50 50 50 51
35 36 36 36 36 36 36 35 35 36 37 38 37 37 37 38 39 38 39 40 40 40 40 40 40 41 41 42 42 42 42 43 44 45 46 47 48 49 49 49 50 50 50 51
36 37 37 37 37 37 37 36 36 36 37 38 38 37 36 38 38 38 39 40 41 42 42 42 41 42 42 43 43 43 43 43 43 44 46 47 48 49 50 50 51 51 50 50
37 37 38 38 38 39 38 38 37 38 38 38 38 38 37 38 38 38 39 40 40 41 41 41 42 43 43 44 44 43 42 42 43 44 44 45 47 48 49 50 51 51 52 50
39 39 39 39 39 40 40 39 39 39 38 39 39 38 38 38 38 38 39 40 40 40 40 40 40 41 41 41 41 42 43 42 43 44 44 44 45 47 47 49 50 51 52 54
39 39 40 40 40 40 40 39 40 40 39 39 39 39 39 39 38 38 40 40 40 40 39 39 39 39 39 40 40 41 42 42 43 42 42 42 44 46 47 47 48 50 51 53
39 39 39 39 40 41 39 39 40 39 38 38 38 38 39 39 38 38 40 40 40 39 39 39 39 38 38 38 39 39 40 41 41 41 41 41 42 43 44 46 47 48 50 51
39 39 39 39 40 41 40 39 39 40 39 38 38 38 38 38 38 38 39 40 39 39 40 39 38 38 37 37 38 38 38 39 39 40 40 40 40 41 42 43 45 46 48 49
38 38 38 39 39 39 39 39 38 39 39 38 37 37 37 38 38 39 39 39 39 39 39 39 38 37 37 36 36 36 37 37 38 39 40 40 40 40 41 42 42 44 45 46
38 38 38 38 38 38 37 38 38 38 37 37 37 37 37 37 37 38 38 38 38 38 37 37 36 36 36 35 35 35 35 36 37 38 39 39 40 40 41 41 41 42 43 43
36 37 37 37 37 36 36 37 36 36 36 36 37 37 37 36 36 36 36 36 36 36 35 35 35 35 35 35 34 34 34 35 35 36 37 38 39 39 39 39 39 40 41 42
35 36 36 36 35 35 35 35 35 35 35 35 36 36 35 36 35 35 35 35 34 34 34 34 34 34 35 35 34 34 34 34 35 36 36 36 36 36 36 36 37 38 39 40
34 35 35 35 34 34 34 35 35 35 34 34 35 35 35 35 34 34 34 34 34 34 35 35 35 35 34 34 33 34 34 34 34 34 34 34 35 35 35 35 35 36 37 37
33 34 34 34 34 34 33 34 34 34 33 34 34 34 34 34 34 34 33 33 33 34 34 34 34 34 34 33 33 34 34 34 33 33 33 34 34 34 34 34 34 35 35 35
Wind_Direction
295 294 295 296 296 295 294 292 290 289 288 287 286 284 279 276 274 272 269 266 265 264 262 260 260 257 254 253 255 256 256 256 255 255 255 256 256 256 256 255 255 254 254 254
295 295 296 296 295 294 294 292 291 289 288 287 286 284 282 279 276 274 271 268 266 265 264 263 261 258 256 255 255 257 257 257 256 256 256 256 256 256 256 255 254 253 253 254
297 298 297 295 295 295 294 294 293 291 289 287 286 283 282 282 280 277 274 271 268 269 266 264 260 259 258 257 257 257 257 257 257 257 257 256 256 256 255 254 253 254 254 254
297 297 297 296 295 295 295 295 293 292 289 289 287 285 283 284 282 280 278 274 272 271 268 266 262 260 260 259 259 259 259 259 258 257 257 256 256 256 256 255 255 254 254 254
297 297 298 298 297 296 296 296 294 292 291 290 288 287 285 283 282 282 280 278 275 273 270 266 264 263 262 262 263 262 260 259 259 258 258 257 257 256 255 255 255 255 254 253
296 296 297 297 297 297 298 297 295 293 292 292 292 290 288 287 285 282 282 280 277 274 271 269 266 264 264 264 265 263 262 261 260 259 258 258 257 257 256 255 255 254 253 252
295 296 297 298 298 298 298 298 298 296 294 294 294 292 292 290 287 285 283 282 278 276 273 270 267 265 264 266 266 265 263 262 262 260 259 258 258 258 257 255 254 252 252 252
295 296 297 298 298 299 299 300 299 299 298 297 296 294 293 291 289 288 285 284 281 279 274 271 269 268 266 268 268 266 265 264 263 261 259 259 258 257 256 255 253 252 251 251
296 297 297 298 299 299 299 300 300 298 298 297 296 295 292 290 289 288 287 286 284 281 277 272 270 270 269 269 271 270 268 266 264 262 260 259 259 257 256 255 254 253 252 252
295 296 298 299 300 299 299 299 300 299 298 297 296 296 295 292 290 290 290 289 287 284 281 277 274 272 271 271 272 272 271 269 266 264 261 259 259 258 255 254 254 254 254 253
295 296 297 298 299 300 300 298 297 297 297 296 296 296 296 294 291 291 291 291 289 287 283 280 277 276 275 274 272 272 271 269 267 265 263 261 259 259 255 254 254 254 254 253
295 296 297 298 299 299 299 298 298 297 297 296 296 297 296 294 292 292 292 291 289 287 284 282 280 278 276 275 274 273 272 270 267 265 264 263 262 260 257 255 254 255 255 253
294 296 297 298 299 299 299 298 297 296 295 295 295 297 295 293 293 291 290 290 289 288 286 284 281 279 277 276 274 274 273 271 269 267 265 264 264 262 259 257 255 255 255 255
293 294 295 297 298 298 298 297 297 295 294 295 295 295 295 294 293 292 290 289 289 288 287 286 283 281 279 277 275 274 274 272 269 268 266 265 264 263 260 258 257 257 257 254
293 293 294 295 295 295 296 296 295 294 294 294 294 294 294 294 294 292 291 289 288 288 287 286 284 282 281 279 277 276 275 272 270 268 267 265 264 263 262 260 259 258 257 256
292 293 293 293 294 293 293 294 294 293 293 294 294 293 292 292 293 292 291 290 289 289 287 286 285 284 282 281 279 278 276 274 272 271 269 267 266 265 264 262 261 260 257 256
293 293 294 294 294 293 294 295 295 295 294 294 294 294 292 292 292 293 292 291 291 290 289 288 287 285 284 282 280 279 277 276 275 274 272 269 267 265 264 263 262 260 258 256
294 294 294 295 296 295 296 297 296 296 295 294 294 293 293 292 292 293 293 293 292 291 290 289 288 287 285 283 281 279 277 277 276 275 274 272 269 266 265 264 263 262 260 258
294 293 293 294 295 295 297 298 298 298 296 295 294 293 293 292 292 293 293 293 292 292 291 290 289 288 286 284 282 280 278 277 277 277 276 274 272 269 267 265 265 264 262 260
293 292 291 293 294 296 298 298 298 298 296 296 295 295 294 294 293 292 292 293 293 292 291 291 290 289 287 286 284 281 279 278 277 276 277 277 275 273 270 268 266 265 263 261
292 292 292 293 294 296 298 298 299 298 298 298 297 296 296 295 295 294 293 293 293 293 292 291 290 289 288 287 285 283 281 278 277 277 277 277 277 276 273 270 268 266 265 262
292 293 293 293 294 296 297 297 297 299 299 298 297 297 297 297 297 297 296 296 295 295 293 292 291 290 289 288 286 284 282 281 279 278 277 278 278 277 276 273 270 268 265 261
292 293 293 294 295 295 296 296 297 298 298 298 298 298 298 298 298 297 297 297 297 296 295 294 292 291 291 289 287 285 283 283 281 280 280 280 279 278 276 275 272 269 266 263
292 293 294 294 294 294 296 297 298 297 297 298 298 298 298 298 298 298 298 298 298 297 296 296 294 293 292 289 286 285 284 284 283 281 281 281 280 278 277 275 273 271 268 265
293 294 295 295 294 293 295 296 298 298 298 299 299 299 299 299 300 299 299 299 299 298 297 296 295 294 293 290 287 287 286 284 284 283 282 281 280 279 277 275 274 273 270 267
292 293 294 294 295 294 295 296 298 299 300 300 300 300 300 300 300 300 300 300 300 300 300 298 296 296 294 292 290 289 288 286 284 283 282 281 281 278 277 275 275 274 271 267